This is the latest recevied weather packets stored in our database for station/object KD7CIH. If no packets are shown the sender has not sent any weather packets the latest 1 day(s).
| Time | Temp. | Humidity | Pressure | Rain* | Wind** | Luminosity | Snow |
|---|---|---|---|---|---|---|---|
| 1777989673 | 0.56° C | 89% | 1008.1 hPa | 0 mm | 1.34 m/s, 113° | - | - |
| 1777989371 | 0.56° C | 88% | 1008.1 hPa | 0 mm | 1.34 m/s, 96° | - | - |
| 1777989071 | 0.56° C | 87% | 1007.9 hPa | 0 mm | 1.34 m/s, 98° | - | - |
| 1777988768 | 0.56° C | 86% | 1007.8 hPa | 0 mm | 2.68 m/s, 107° | - | - |
| 1777988467 | 1.11° C | 85% | 1007.8 hPa | 0 mm | 3.13 m/s, 118° | - | - |
| 1777988167 | 1.11° C | 83% | 1007.8 hPa | 0 mm | 3.58 m/s, 91° | - | - |
| 1777987870 | 1.67° C | 82% | 1007.7 hPa | 0 mm | 4.02 m/s, 98° | - | - |
| 1777987567 | 2.22° C | 81% | 1007.6 hPa | 0 mm | 4.47 m/s, 76° | - | - |
| 1777987268 | 2.22° C | 80% | 1007.5 hPa | 0 mm | 4.02 m/s, 78° | - | - |
| 1777986967 | 2.22° C | 80% | 1007.5 hPa | 0 mm | 2.68 m/s, 76° | - | - |
| 1777986668 | 2.22° C | 80% | 1007.5 hPa | 0 mm | 2.24 m/s, 92° | - | - |
| 1777986368 | 2.22° C | 81% | 1007.5 hPa | 0 mm | 2.68 m/s, 84° | - | - |
| 1777986067 | 2.22° C | 80% | 1007.3 hPa | 0 mm | 3.13 m/s, 103° | - | - |
| 1777985769 | 2.78° C | 79% | 1007.2 hPa | 0 mm | 2.24 m/s, 68° | - | - |
| 1777985470 | 2.78° C | 79% | 1007 hPa | 0 mm | 1.34 m/s, 95° | - | - |
| 1777985166 | 2.78° C | 79% | 1007 hPa | 0 mm | 1.79 m/s, 151° | - | - |
| 1777984994 | 2.78° C | 79% | 1007 hPa | 0 mm | 2.68 m/s, 86° | - | - |
| 1777984568 | 2.78° C | 79% | 1006.9 hPa | 0 mm | 2.68 m/s, 88° | - | - |
| 1777984393 | 2.78° C | 78% | 1006.7 hPa | 0 mm | 2.68 m/s, 100° | - | - |
| 1777983967 | 2.78° C | 78% | 1006.9 hPa | 0 mm | 3.13 m/s, 99° | - | - |
| 1777983669 | 2.78° C | 78% | 1006.7 hPa | 0 mm | 2.68 m/s, 114° | - | - |
| 1777983367 | 2.78° C | 78% | 1006.7 hPa | 0 mm | 1.79 m/s, 88° | - | - |
| 1777983066 | 2.78° C | 78% | 1006.7 hPa | 0 mm | 0.89 m/s, 209° | - | - |
| 1777982766 | 2.78° C | 78% | 1006.7 hPa | 0 mm | 1.79 m/s, 99° | - | - |
| 1777982595 | 2.78° C | 78% | 1006.6 hPa | 0 mm | 2.68 m/s, 153° | - | - |
* Rain latest hour (hover to see other rain measurements)
** Current wind speed in m/s (hover to see current wind gust speed)